CW8844 Weather Reports


Display with metric or nautical units.
time (UTC)temp
F
wind
direction
speed
MPH
gust
MPH
rain 1hr
in
rain 24hr
in
rain mn
in
humidity
%
barometer
mb
20260505022617 62 343 0.0 4.0 0.00 0.00 0.00 41 1005.8
20260505021627 63 327 2.0 5.0 0.00 0.00 0.00 40 1005.7
20260505020615 64 298 3.0 6.0 0.00 0.00 0.00 39 1005.5
20260505015619 65 321 3.0 7.0 0.00 0.00 0.00 35 1005.3
20260505014628 66 281 2.0 6.0 0.00 0.00 0.00 36 1005.4
20260505013617 67 260 5.0 9.0 0.00 0.00 0.00 34 1005.5
20260505012625 67 234 4.0 8.0 0.00 0.00 0.00 32 1005.5
20260505011620 68 247 4.0 8.0 0.00 0.00 0.00 30 1005.5
20260505010630 69 242 4.0 7.0 0.00 0.00 0.00 29 1005.5
20260505005631 69 29 1.0 9.0 0.00 0.00 0.00 27 1005.5
20260505004620 69 59 3.0 11.0 0.00 0.00 0.00 27 1005.7
20260505003651 68 65 5.0 12.0 0.00 0.00 0.00 28 1005.7
20260505002617 68 70 8.0 15.0 0.00 0.00 0.00 28 1005.8
20260505001627 70 103 1.0 10.0 0.00 0.00 0.00 29 1006.1
20260505000618 70 231 3.0 10.0 0.00 0.00 0.00 31 1005.9
20260504235623 69 238 5.0 14.0 0.00 0.00 0.00 31 1005.9
20260504234632 68 238 7.0 14.0 0.00 0.00 0.00 31 1006.0
20260504233623 68 163 5.0 10.0 0.00 0.00 0.00 31 1005.9
20260504232631 69 215 8.0 19.0 0.00 0.00 0.00 32 1006.0
20260504231627 69 210 11.0 18.0 0.00 0.00 0.00 32 1005.9
20260504230635 69 242 4.0 7.0 0.00 0.00 0.00 29 1005.7
20260504225615 70 253 4.0 8.0 0.00 0.00 0.00 26 1005.6
20260504224625 72 243 4.0 8.0 0.00 0.00 0.00 23 1005.7
20260504223711 72 255 3.0 7.0 0.00 0.00 0.00 25 1005.7